This is the latest recevied weather packets stored in our database for station/object HF3P-11. If no packets are shown the sender has not sent any weather packets the latest 1 day(s).
| Time | Temp. | Humidity | Pressure | Rain* | Wind** | Luminosity | Snow |
|---|---|---|---|---|---|---|---|
| 1778029801 | 10.56° C | 97% | 998.8 hPa | 0 mm | 3.58 m/s, 46° | - | - |
| 1778029500 | 10.56° C | 96% | 998.7 hPa | 0 mm | 3.58 m/s, 43° | - | - |
| 1778029201 | 10.56° C | 96% | 998.9 hPa | 0 mm | 3.13 m/s, 40° | - | - |
| 1778028900 | 10.56° C | 96% | 998.8 hPa | 0 mm | 3.13 m/s, 40° | - | - |
| 1778028610 | 10.56° C | 96% | 998.9 hPa | 0 mm | 3.13 m/s, 51° | - | - |
| 1778028300 | 10.56° C | 95% | 999 hPa | 0 mm | 3.13 m/s, 53° | - | - |
| 1778028000 | 10.56° C | 95% | 998.9 hPa | 0 mm | 3.13 m/s, 45° | - | - |
| 1778027701 | 10.56° C | 95% | 998.8 hPa | 0 mm | 3.13 m/s, 45° | - | - |
| 1778027409 | 10.56° C | 95% | 998.9 hPa | 0 mm | 3.13 m/s, 38° | - | - |
| 1778027108 | 10.56° C | 95% | 999.1 hPa | 0 mm | 3.13 m/s, 35° | - | - |
| 1778026809 | 10.56° C | 95% | 999.2 hPa | 0 mm | 2.68 m/s, 41° | - | - |
| 1778026508 | 10.56° C | 95% | 999.1 hPa | 0 mm | 2.68 m/s, 40° | - | - |
| 1778026208 | 10.56° C | 95% | 999.1 hPa | 0 mm | 3.13 m/s, 42° | - | - |
| 1778025908 | 11.11° C | 95% | 999.1 hPa | 0 mm | 3.13 m/s, 42° | - | - |
| 1778025600 | 10.56° C | 95% | 999.1 hPa | 0 mm | 2.68 m/s, 39° | - | - |
| 1778025308 | 10.56° C | 95% | 999.4 hPa | 0 mm | 2.68 m/s, 40° | - | - |
| 1778025000 | 10.56° C | 94% | 999.3 hPa | 0 mm | 2.68 m/s, 40° | - | - |
| 1778024701 | 10.56° C | 94% | 999.5 hPa | 0 mm | 3.13 m/s, 40° | - | - |
| 1778024400 | 11.11° C | 93% | 999.4 hPa | 0 mm | 3.13 m/s, 37° | - | - |
| 1778024100 | 11.11° C | 93% | 999.3 hPa | 0 mm | 3.13 m/s, 41° | - | - |
| 1778023800 | 11.11° C | 93% | 999.4 hPa | 0 mm | 3.13 m/s, 42° | - | - |
| 1778023509 | 11.11° C | 92% | 999.4 hPa | 0 mm | 3.13 m/s, 37° | - | - |
| 1778023208 | 11.11° C | 92% | 999.4 hPa | 0 mm | 3.13 m/s, 33° | - | - |
| 1778022900 | 11.11° C | 92% | 999.5 hPa | 0 mm | 2.68 m/s, 34° | - | - |
| 1778022600 | 11.11° C | 91% | 999.6 hPa | 0 mm | 2.24 m/s, 43° | - | - |
* Rain latest hour (hover to see other rain measurements)
** Current wind speed in m/s (hover to see current wind gust speed)